DW6266 Arezzo IT current weather conditions

sailwx.info

Wind from 043 at 0 knots gusting 5

Air temperature 19.4° C
Dewpoint 14.3° C

Last reported at 2019-Sep-16 22:07 UTC.
Time now 2019-Sep-16 22:45 UTC

Location: N 43°26' E 011°53'.
View on Google Maps.

See reports from other nearby stations

  
Tides and Currents Weather Stations Pressure Air Temp Water Temp Dewpoint Dewpoint Depression Visibility Wind Speed Wind Dir Waves Ship Positions
date/time (UTC)wind fromknots sea level pressurealtimeterstation pressurevisibilityair tempwater tempwave heightnotes
2019-Sep-16 22:07 043 0 gusting 5 19.4
2019-Sep-16 22:02 042 3 gusting 5 18.9
2019-Sep-16 21:57 092 3 gusting 5 18.9
2019-Sep-16 21:52 078 3 gusting 5 18.9
2019-Sep-16 21:47 081 2 gusting 5 18.9
2019-Sep-16 21:42 080 2 gusting 5 18.9
2019-Sep-16 21:37 099 2 gusting 5 18.9
2019-Sep-16 21:32 082 3 gusting 5 18.9
2019-Sep-16 21:27 116 3 gusting 5 19.4
2019-Sep-16 21:22 092 4 gusting 5 19.4
2019-Sep-16 21:17 085 3 gusting 5 19.4
2019-Sep-16 21:12 106 3 gusting 5 19.4
2019-Sep-16 21:07 097 3 gusting 5 19.4
2019-Sep-16 21:02 109 4 gusting 5 19.4
2019-Sep-16 20:57 108 4 gusting 5 19.4
2019-Sep-16 20:52 106 4 gusting 5 20.0
2019-Sep-16 20:47 126 4 gusting 5 19.4
2019-Sep-16 20:42 094 4 gusting 4 20.0
2019-Sep-16 20:37 091 3 gusting 4 20.6
2019-Sep-16 20:32 119 20.6
2019-Sep-16 20:27 133 1 gusting 4 20.6
2019-Sep-16 20:22 135 3 gusting 4 20.6
2019-Sep-16 20:17 091 3 gusting 4 21.1
2019-Sep-16 20:12 056 2 gusting 4 21.1
2019-Sep-16 20:07 120 2 gusting 4 21.7
2019-Sep-16 20:02 164 0 gusting 4 21.7
2019-Sep-16 19:57 092 2 gusting 4 22.2
2019-Sep-16 19:52 118 1 gusting 3 22.2
2019-Sep-16 19:47 149 1 gusting 7 22.8
2019-Sep-16 19:42 099 2 gusting 7 23.3
2019-Sep-16 19:37 142 2 gusting 2 23.3
2019-Sep-16 19:32 026 23.9
2019-Sep-16 19:27 039 0 gusting 5 24.4
2019-Sep-16 19:22 132 24.4
2019-Sep-16 19:17 151 1 gusting 8 24.4
2019-Sep-16 19:12 358 25.0
2019-Sep-16 19:07 358 25.0
2019-Sep-16 19:02 358 25.0
2019-Sep-16 18:57 358 25.0
2019-Sep-16 18:52 358 25.0
2019-Sep-16 18:47 327 0 gusting 7 25.0
2019-Sep-16 18:42 358 25.0
2019-Sep-16 18:37 358 25.0
2019-Sep-16 18:32 358 25.6
2019-Sep-16 18:27 115 2 gusting 11 25.6
2019-Sep-16 18:22 358 0 gusting 11 25.6
2019-Sep-16 18:17 213 25.6
2019-Sep-16 18:12 358 0 gusting 8 25.6
2019-Sep-16 18:07 358 1 gusting 8 25.6
2019-Sep-16 18:02 358 0 gusting 8 25.6
2019-Sep-16 17:57 358 0 gusting 10 25.6
2019-Sep-16 17:52 358 26.1
2019-Sep-16 17:47 358 26.1
2019-Sep-16 17:42 358 26.1
2019-Sep-16 17:37 358 26.1
2019-Sep-16 17:32 358 26.1
2019-Sep-16 17:27 358 26.7
2019-Sep-16 17:22 358 0 gusting 11 26.7
2019-Sep-16 17:17 358 26.7
2019-Sep-16 17:12 358 0 gusting 10 26.7
2019-Sep-16 17:07 358 26.7
2019-Sep-16 17:02 358 25.0
2019-Sep-16 16:57 143 3 gusting 5 25.6
2019-Sep-16 16:52 109 2 gusting 4 25.0
2019-Sep-16 16:47 108 3 gusting 7 25.6
2019-Sep-16 16:42 119 2 gusting 7 26.1
2019-Sep-16 16:37 091 26.7
2019-Sep-16 16:32 174 26.7
2019-Sep-16 16:27 208 1 gusting 8 27.2
2019-Sep-16 16:22 358 1 gusting 7 27.2
2019-Sep-16 16:17 358 0 gusting 2 28.3
2019-Sep-16 16:12 212 1 gusting 2 29.4
2019-Sep-16 16:07 001 30.0
2019-Sep-16 16:02 001 29.4
2019-Sep-16 15:57 001 29.4
2019-Sep-16 15:52 001 0 gusting 7 29.4
2019-Sep-16 15:47 358 29.4
2019-Sep-16 15:42 358 1 gusting 5 29.4
2019-Sep-16 15:37 049 30.0
2019-Sep-16 15:32 049 30.0
2019-Sep-16 15:27 049 30.0
2019-Sep-16 15:22 358 30.0
2019-Sep-16 15:17 161 1 gusting 7 30.0
2019-Sep-16 15:12 088 3 gusting 7 30.0
2019-Sep-16 15:07 322 0 gusting 8 30.6
2019-Sep-16 15:02 059 30.6
2019-Sep-16 14:57 047 3 gusting 8 30.6
2019-Sep-16 14:52 358 30.6
2019-Sep-16 14:47 191 30.6
2019-Sep-16 14:42 191 30.0
2019-Sep-16 14:37 209 30.0
2019-Sep-16 14:32 011 3 gusting 4 30.0
2019-Sep-16 14:27 317 2 gusting 4 30.0
2019-Sep-16 14:22 320 2 gusting 8 30.0
2019-Sep-16 14:17 358 0 gusting 8 30.0
2019-Sep-16 14:12 316 0 gusting 8 30.0
2019-Sep-16 14:07 066 1 gusting 8 29.4
2019-Sep-16 14:02 160 1 gusting 8 30.0
2019-Sep-16 13:57 192 30.0
2019-Sep-16 13:52 149 3 gusting 8 30.0
2019-Sep-16 13:47 223 4 gusting 7 30.0
2019-Sep-16 13:42 347 0 gusting 7 30.0
2019-Sep-16 13:37 358 1 gusting 8 30.0
2019-Sep-16 13:32 309 1 gusting 8 30.0
2019-Sep-16 13:27 033 2 gusting 8 30.0
2019-Sep-16 13:22 358 1 gusting 6 29.4
2019-Sep-16 13:17 317 0 gusting 6 29.4
2019-Sep-16 13:12 313 2 gusting 6 28.9
2019-Sep-16 13:07 316 3 gusting 7 29.4
2019-Sep-16 13:02 319 0 gusting 7 29.4
2019-Sep-16 12:57 315 29.4
2019-Sep-16 12:52 115 2 gusting 8 28.9
2019-Sep-16 12:47 205 4 gusting 6 28.9
2019-Sep-16 12:42 310 0 gusting 7 28.3
2019-Sep-16 12:37 320 2 gusting 7 28.3
2019-Sep-16 12:32 315 4 gusting 5 28.3
2019-Sep-16 12:27 354 2 gusting 5 28.3
2019-Sep-16 12:22 358 0 gusting 5 28.3
2019-Sep-16 12:17 312 1 gusting 5 28.3
2019-Sep-16 12:12 315 1 gusting 8 28.3
2019-Sep-16 12:07 323 0 gusting 8 28.3
2019-Sep-16 12:02 092 28.3
2019-Sep-16 11:57 212 1 gusting 6 28.3
2019-Sep-16 11:52 358 1 gusting 6 28.3
2019-Sep-16 11:47 358 28.3
2019-Sep-16 11:42 320 1 gusting 6 28.3
2019-Sep-16 11:37 358 28.3
2019-Sep-16 11:32 358 27.8
2019-Sep-16 11:27 323 1 gusting 7 27.8
2019-Sep-16 11:22 319 3 gusting 5 27.8
2019-Sep-16 11:17 358 0 gusting 5 27.8
2019-Sep-16 11:12 315 0 gusting 6 27.8
2019-Sep-16 11:07 320 2 gusting 6 27.8
2019-Sep-16 11:02 358 27.2
2019-Sep-16 10:57 320 1 gusting 3 27.2
2019-Sep-16 10:52 322 27.2
2019-Sep-16 10:47 322 27.2
2019-Sep-16 10:42 322 1 gusting 5 27.2
2019-Sep-16 10:37 315 1 gusting 4 26.7
2019-Sep-16 10:32 358 26.7
2019-Sep-16 10:27 322 2 gusting 5 26.1
2019-Sep-16 10:22 108 1 gusting 5 25.6
2019-Sep-16 10:17 323 3 gusting 5 25.6
2019-Sep-16 10:12 315 1 gusting 4 25.6
2019-Sep-16 10:07 313 2 gusting 4 25.6
2019-Sep-16 10:02 312 1 gusting 4 25.6
2019-Sep-16 09:57 322 1 gusting 4 25.0
2019-Sep-16 09:52 312 1 gusting 4 25.0
2019-Sep-16 09:47 355 0 gusting 4 25.0
2019-Sep-16 09:42 330 1 gusting 3 25.0
2019-Sep-16 09:37 326 24.4
2019-Sep-16 09:32 330 2 gusting 3 24.4
2019-Sep-16 09:27 313 1 gusting 3 23.9
2019-Sep-16 09:22 312 1 gusting 3 23.9
2019-Sep-16 09:17 324 1 gusting 3 23.9
2019-Sep-16 09:12 315 1 gusting 3 23.3
2019-Sep-16 09:07 310 2 gusting 4 23.3
2019-Sep-16 09:02 322 2 gusting 4 23.3
2019-Sep-16 08:57 322 22.8
2019-Sep-16 08:52 319 1 gusting 3 22.8
2019-Sep-16 08:47 002 0 gusting 3 22.8
2019-Sep-16 08:42 293 22.2
2019-Sep-16 08:37 320 22.2
2019-Sep-16 08:32 307 21.7
2019-Sep-16 08:27 352 0 21.7
2019-Sep-16 08:22 306 21.7
2019-Sep-16 08:17 306 21.1
2019-Sep-16 08:12 306 20.6
2019-Sep-16 08:07 320 2 gusting 3 20.6
2019-Sep-16 08:02 315 1 gusting 3 20.0
2019-Sep-16 07:57 309 1 gusting 3 20.0
2019-Sep-16 07:52 313 0 gusting 3 19.4
2019-Sep-16 07:47 298 1 gusting 1 19.4
2019-Sep-16 07:42 084 19.4
2019-Sep-16 07:37 084 18.9
2019-Sep-16 07:32 084 18.9
2019-Sep-16 07:27 084 18.3
2019-Sep-16 07:22 084 18.3
2019-Sep-16 07:17 084 17.8
2019-Sep-16 07:12 084 17.8
2019-Sep-16 07:07 084 17.8
2019-Sep-16 07:02 084 17.2
2019-Sep-16 06:57 084 17.2
2019-Sep-16 06:52 084 17.2
2019-Sep-16 06:47 084 17.2
2019-Sep-16 06:42 084 17.2
2019-Sep-16 06:37 084 16.7
2019-Sep-16 06:32 084 16.7
2019-Sep-16 06:27 084 16.1
2019-Sep-16 06:22 084 16.1
2019-Sep-16 06:17 084 16.1
2019-Sep-16 06:12 084 15.6
2019-Sep-16 06:07 084 15.6
2019-Sep-16 06:02 084 15.6
2019-Sep-16 05:57 084 15.0
2019-Sep-16 05:52 084 15.0
2019-Sep-16 05:47 084 15.0
2019-Sep-16 05:42 084 15.0
2019-Sep-16 05:37 084 15.0
2019-Sep-16 05:32 084 14.4
2019-Sep-16 05:27 084 14.4
2019-Sep-16 05:22 084 14.4
2019-Sep-16 05:17 075 1 gusting 3 14.4
2019-Sep-16 05:12 053 1 gusting 3 14.4
2019-Sep-16 05:07 094 1 gusting 3 14.4
2019-Sep-16 05:02 084 3 gusting 3 14.4
2019-Sep-16 04:57 070 2 14.4
2019-Sep-16 04:52 074 14.4
2019-Sep-16 04:47 074 14.4
2019-Sep-16 04:42 074 14.4
2019-Sep-16 04:37 074 14.4
2019-Sep-16 04:32 074 14.4
2019-Sep-16 04:27 056 1 gusting 3 14.4
2019-Sep-16 04:22 084 2 gusting 3 14.4
2019-Sep-16 04:17 095 2 gusting 3 14.4
2019-Sep-16 04:12 102 0 gusting 3 14.4
2019-Sep-16 04:07 126 1 gusting 3 14.4
2019-Sep-16 04:02 102 3 gusting 3 14.4
2019-Sep-16 03:57 085 3 gusting 2 14.4
2019-Sep-16 03:52 070 1 gusting 1 14.4
2019-Sep-16 03:47 077 15.0
2019-Sep-16 03:42 077 15.0
2019-Sep-16 03:37 077 15.0
2019-Sep-16 03:32 077 15.0
2019-Sep-16 03:27 077 15.0
2019-Sep-16 03:22 077 15.0
2019-Sep-16 03:17 077 15.0
2019-Sep-16 03:12 097 1 gusting 3 15.0
2019-Sep-16 03:07 087 2 gusting 3 15.0
2019-Sep-16 03:02 068 1 gusting 3 15.0
2019-Sep-16 02:57 077 2 gusting 1 15.6
2019-Sep-16 02:52 021 15.0
2019-Sep-16 02:47 021 15.0
2019-Sep-16 02:42 021 15.0
2019-Sep-16 02:37 021 15.0
2019-Sep-16 02:32 061 1 gusting 5 15.0
2019-Sep-16 02:27 085 0 gusting 5 15.0
2019-Sep-16 02:22 088 2 gusting 5 15.6
2019-Sep-16 02:17 102 4 gusting 5 15.6
2019-Sep-16 02:12 092 0 gusting 1 16.1
2019-Sep-16 02:07 195 0 gusting 1 15.6
2019-Sep-16 02:02 036 16.1
2019-Sep-16 01:57 036 16.1
2019-Sep-16 01:52 036 16.1
2019-Sep-16 01:47 036 16.1
2019-Sep-16 01:42 036 16.1
2019-Sep-16 01:37 036 16.1
2019-Sep-16 01:32 036 16.1
2019-Sep-16 01:27 075 16.1
2019-Sep-16 01:22 056 16.1
2019-Sep-16 01:17 056 16.1
2019-Sep-16 01:12 056 16.1
2019-Sep-16 01:07 106 2 gusting 2 15.6
2019-Sep-16 01:02 080 1 gusting 3 15.6
2019-Sep-16 00:57 209 0 gusting 3 15.6
2019-Sep-16 00:52 120 1 gusting 4 15.6
2019-Sep-16 00:47 095 2 gusting 4 15.6
2019-Sep-16 00:42 094 2 gusting 3 16.1
2019-Sep-16 00:37 082 2 gusting 3 16.1
2019-Sep-16 00:32 091 2 gusting 3 16.7
2019-Sep-16 00:27 080 2 gusting 3 16.7
2019-Sep-16 00:22 077 1 gusting 3 16.7
2019-Sep-16 00:17 104 3 gusting 2 16.7
2019-Sep-16 00:12 050 16.7
2019-Sep-16 00:07 050 16.7
2019-Sep-16 00:02 050 16.7
2019-Sep-15 23:57 358 16.7
2019-Sep-15 23:52 358 16.7
2019-Sep-15 23:47 358 16.7
2019-Sep-15 23:42 358 16.7
2019-Sep-15 23:37 358 0 gusting 1 16.7
2019-Sep-15 23:32 320 16.7
2019-Sep-15 23:27 320 16.7
2019-Sep-15 23:22 008 17.2
2019-Sep-15 23:17 008 17.2
2019-Sep-15 23:12 163 17.2
2019-Sep-15 23:07 189 0 gusting 1 17.2
2019-Sep-15 23:02 199 0 gusting 2 16.7
2019-Sep-15 22:57 097 17.2
2019-Sep-15 22:52 136 0 gusting 2 16.7
2019-Sep-15 22:47 095 1 gusting 2 16.7
2019-Sep-15 22:42 177 0 gusting 2 16.7
2019-Sep-15 22:37 150 1 gusting 3 16.7
2019-Sep-15 22:32 137 1 gusting 5 16.7
2019-Sep-15 22:27 109 1 gusting 5 17.2
2019-Sep-15 22:22 094 2 gusting 4 17.2
2019-Sep-15 22:17 080 2 gusting 4 17.2
2019-Sep-15 22:12 088 3 gusting 4 17.8
2019-Sep-15 22:07 098 3 gusting 3 17.8
2019-Sep-15 22:02 098 2 gusting 3 17.8
2019-Sep-15 21:57 119 2 gusting 3 17.8
2019-Sep-15 21:52 130 0 gusting 4 17.8
2019-Sep-15 21:47 094 1 gusting 4 17.8
2019-Sep-15 21:42 082 2 gusting 4 18.3
2019-Sep-15 21:37 092 3 gusting 4 18.3
2019-Sep-15 21:32 070 1 gusting 1 18.3
2019-Sep-15 21:27 135 0 18.3
2019-Sep-15 21:22 078 18.9
2019-Sep-15 21:17 078 19.4
2019-Sep-15 21:12 078 19.4
2019-Sep-15 21:07 078 19.4
2019-Sep-15 21:02 078 19.4
2019-Sep-15 20:57 078 20.0
2019-Sep-15 20:52 078 20.0
2019-Sep-15 20:47 209 1 19.4
2019-Sep-15 20:42 315 19.4
2019-Sep-15 20:37 315 19.4
2019-Sep-15 20:32 315 19.4
2019-Sep-15 20:27 315 20.0
2019-Sep-15 20:22 312 0 gusting 1 20.0
2019-Sep-15 20:17 322 0 gusting 1 20.0
2019-Sep-15 20:12 315 20.0
2019-Sep-15 20:07 206 20.0
2019-Sep-15 20:02 206 20.0
2019-Sep-15 19:57 206 20.6
2019-Sep-15 19:52 215 0 gusting 2 20.6
2019-Sep-15 19:47 057 21.1
2019-Sep-15 19:42 057 1 gusting 3 21.1
2019-Sep-15 19:37 198 0 gusting 7 21.1
2019-Sep-15 19:32 122 2 gusting 7 21.1
2019-Sep-15 19:27 109 2 gusting 7 20.6
2019-Sep-15 19:07 158 20.6
2019-Sep-15 19:02 158 20.6
2019-Sep-15 18:52 157 20.6
2019-Sep-15 18:47 168 21.1
2019-Sep-15 18:42 140 1 gusting 5 21.1
2019-Sep-15 18:32 091 3 gusting 4 21.7
2019-Sep-15 18:27 082 2 gusting 3 22.2
2019-Sep-15 18:22 154 2 gusting 1 22.2
2019-Sep-15 18:17 120 0 gusting 3 22.8
2019-Sep-15 18:13 108 0 gusting 7 23.3
2019-Sep-15 18:07 142 0 gusting 7 23.3
2019-Sep-15 18:02 094 1 gusting 7 23.3
2019-Sep-15 17:57 142 0 gusting 1 23.3
2019-Sep-15 17:52 139 23.3
2019-Sep-15 17:47 060 23.3
2019-Sep-15 17:42 181 23.3
2019-Sep-15 17:37 112 0 gusting 0 23.3
2019-Sep-15 17:32 097 23.3
2019-Sep-15 17:27 154 23.3
2019-Sep-15 17:22 154 23.3
2019-Sep-15 17:17 154 23.9
2019-Sep-15 17:12 154 24.4
2019-Sep-15 17:07 095 24.4
2019-Sep-15 17:02 210 24.4
2019-Sep-15 16:57 216 0 gusting 1 25.0
2019-Sep-15 16:52 078 0 gusting 1 25.0
2019-Sep-15 16:47 151 0 gusting 1 25.6
2019-Sep-15 16:42 184 25.6
2019-Sep-15 16:37 163 25.6
2019-Sep-15 16:32 163 26.1
2019-Sep-15 16:27 149 26.7
2019-Sep-15 16:22 149 26.7
2019-Sep-15 16:17 160 0 gusting 5 26.7
2019-Sep-15 16:12 164 26.7
2019-Sep-15 16:02 172 27.2
2019-Sep-15 15:57 172 27.8
2019-Sep-15 15:52 172 27.8
2019-Sep-15 15:37 172 28.3
2019-Sep-15 15:32 172 28.3
2019-Sep-15 15:27 172 28.3
2019-Sep-15 15:22 172 28.3
2019-Sep-15 15:17 172 28.3
2019-Sep-15 15:12 172 28.3
2019-Sep-15 15:07 172 28.3
2019-Sep-15 15:02 172 28.3
2019-Sep-15 14:57 154 28.9
2019-Sep-15 14:52 154 0 gusting 1 28.9
2019-Sep-15 14:47 064 28.9
2019-Sep-15 14:42 081 28.3
2019-Sep-15 14:37 050 0 gusting 5 28.3
2019-Sep-15 14:32 009 28.3
2019-Sep-15 14:27 009 0 gusting 3 28.3
2019-Sep-15 14:22 015 28.3
2019-Sep-15 14:17 004 1 gusting 4 28.3
2019-Sep-15 14:12 090 28.3
2019-Sep-15 14:07 002 28.3
2019-Sep-15 14:02 019 1 gusting 6 28.9
2019-Sep-15 13:57 046 28.9
2019-Sep-15 13:52 016 28.9
2019-Sep-15 13:42 005 28.3
2019-Sep-15 13:37 310 0 gusting 5 28.3
2019-Sep-15 13:32 037 28.3
2019-Sep-15 13:27 011 2 gusting 4 28.3
2019-Sep-15 13:22 101 0 gusting 6 28.3
2019-Sep-15 13:17 061 1 gusting 6 28.3
2019-Sep-15 13:12 355 2 gusting 6 28.3
2019-Sep-15 13:07 004 3 gusting 5 28.3
2019-Sep-15 13:02 088 0 gusting 6 28.3
2019-Sep-15 12:57 025 1 gusting 6 28.3
2019-Sep-15 12:52 358 2 gusting 6 28.3
2019-Sep-15 12:47 035 1 gusting 6 28.3
2019-Sep-15 12:42 084 2 gusting 6 28.3
2019-Sep-15 12:37 029 2 gusting 6 28.3
2019-Sep-15 12:32 053 2 gusting 6 28.9
2019-Sep-15 12:27 165 1 gusting 7 28.9
2019-Sep-15 12:22 358 0 gusting 7 28.9
2019-Sep-15 12:17 098 28.3
2019-Sep-15 12:12 102 0 gusting 5 28.3
2019-Sep-15 12:07 085 0 gusting 5 27.8
2019-Sep-15 12:02 036 4 gusting 7 27.8
2019-Sep-15 11:52 001 1 gusting 7 28.3
2019-Sep-15 11:47 084 28.3
2019-Sep-15 11:42 178 3 gusting 7 27.8
2019-Sep-15 11:37 333 3 gusting 7 27.8
2019-Sep-15 11:32 081 2 gusting 7 27.8
2019-Sep-15 11:27 139 2 gusting 7 27.8
2019-Sep-15 11:22 018 1 gusting 7 27.8
2019-Sep-15 11:17 094 2 gusting 7 27.8
2019-Sep-15 11:12 084 2 gusting 7 28.3
2019-Sep-15 11:07 313 0 gusting 7 27.8
2019-Sep-15 11:02 042 3 gusting 8 27.8
2019-Sep-15 10:57 202 1 gusting 8 27.2
2019-Sep-15 10:52 178 3 gusting 8 27.2
2019-Sep-15 10:48 175 2 gusting 8 26.7
2019-Sep-15 10:42 208 2 gusting 8 26.7
2019-Sep-15 10:37 108 2 gusting 7 27.2
2019-Sep-15 10:32 153 2 gusting 7 27.2
2019-Sep-15 10:27 047 0 gusting 7 26.7
2019-Sep-15 10:22 135 3 gusting 6 26.7
2019-Sep-15 10:17 358 2 gusting 6 26.7
2019-Sep-15 10:12 039 1 gusting 6 26.1
2019-Sep-15 10:07 334 3 gusting 6 26.1
2019-Sep-15 10:02 084 2 gusting 6 26.1
2019-Sep-15 09:52 043 3 gusting 7 26.1
2019-Sep-15 09:47 071 0 gusting 7 25.6
2019-Sep-15 09:42 080 3 gusting 7 25.6
2019-Sep-15 09:37 133 0 gusting 4 25.6
2019-Sep-15 09:32 25.0
2019-Sep-15 09:27 022 1 gusting 6 25.0
2019-Sep-15 09:22 047 25.0
2019-Sep-15 09:17 109 25.0
2019-Sep-15 09:12 156 1 gusting 2 25.0
2019-Sep-15 09:07 144 0 gusting 0 25.0
2019-Sep-15 09:02 310 24.4
2019-Sep-15 08:57 340 24.4
2019-Sep-15 08:52 341 24.4
2019-Sep-15 08:47 341 0 gusting 2 24.4
2019-Sep-15 08:42 137 23.9
2019-Sep-15 08:37 137 23.9
2019-Sep-15 08:32 172 1 gusting 4 23.9
2019-Sep-15 08:27 208 1 gusting 1 23.9
2019-Sep-15 08:22 019 23.9
2019-Sep-15 08:17 015 23.9
2019-Sep-15 08:12 143 23.3
2019-Sep-15 08:07 143 23.3
2019-Sep-15 08:02 143 22.8
2019-Sep-15 07:57 143 22.8
2019-Sep-15 07:52 143 22.2
2019-Sep-15 07:47 239 0 gusting 2 22.2
2019-Sep-15 07:42 122 22.2
2019-Sep-15 07:37 109 1 gusting 2 21.7
2019-Sep-15 07:32 059 1 gusting 1 21.7
2019-Sep-15 07:27 095 0 gusting 0 21.7
2019-Sep-15 07:22 080 21.7
2019-Sep-15 07:17 080 21.1
2019-Sep-15 07:12 120 21.1
2019-Sep-15 07:07 077 20.6
2019-Sep-15 07:02 070 20.6
2019-Sep-15 06:57 142 20.0
2019-Sep-15 06:52 123 20.0
2019-Sep-15 06:47 123 19.4
2019-Sep-15 06:42 077 18.9
2019-Sep-15 06:37 108 18.3
2019-Sep-15 06:32 108 17.8
2019-Sep-15 06:27 108 17.8
2019-Sep-15 06:22 108 17.8
2019-Sep-15 06:17 108 17.8
2019-Sep-15 06:12 108 17.2
2019-Sep-15 06:07 108 16.7
2019-Sep-15 06:02 081 16.1
2019-Sep-15 05:57 081 15.6
2019-Sep-15 05:52 081 15.6
2019-Sep-15 05:47 081 15.6
2019-Sep-15 05:42 081 16.1
2019-Sep-15 05:37 081 16.1
2019-Sep-15 05:32 081 16.1
2019-Sep-15 05:27 081 16.1
2019-Sep-15 05:22 081 16.1
2019-Sep-15 05:17 081 16.1
2019-Sep-15 05:12 039 0 15.6
2019-Sep-15 05:07 212 15.6
2019-Sep-15 05:02 212 15.6
2019-Sep-15 04:57 212 15.6
2019-Sep-15 04:52 119 0 gusting 2 15.6
2019-Sep-15 04:47 209 0 gusting 1 15.6
2019-Sep-15 04:42 116 0 gusting 1 15.6
2019-Sep-15 04:37 156 1 gusting 1 15.6
2019-Sep-15 04:32 075 15.6
2019-Sep-15 04:27 098 15.6
2019-Sep-15 04:22 098 15.6
2019-Sep-15 04:17 085 1 gusting 3 15.6
2019-Sep-15 04:12 302 15.6
2019-Sep-15 04:07 302 15.6
2019-Sep-15 04:02 302 15.6
2019-Sep-15 03:57 316 15.6
2019-Sep-15 03:52 319 1 gusting 3 15.6
2019-Sep-15 03:47 105 16.1
2019-Sep-15 03:42 002 16.7
2019-Sep-15 03:37 002 16.7
2019-Sep-15 03:32 177 1 gusting 2 16.7
2019-Sep-15 03:27 129 1 gusting 1 16.1
2019-Sep-15 03:22 084 0 16.1
2019-Sep-15 03:17 201 15.6
2019-Sep-15 03:12 201 15.6
2019-Sep-15 03:07 201 15.6
2019-Sep-15 03:02 201 15.6
2019-Sep-15 02:57 201 15.6
2019-Sep-15 02:52 201 15.6
2019-Sep-15 02:47 201 15.6
2019-Sep-15 02:42 201 15.6
2019-Sep-15 02:37 032 15.6
2019-Sep-15 02:32 192 1 gusting 2 15.6
2019-Sep-15 02:27 043 0 gusting 3 15.6
2019-Sep-15 02:22 090 1 gusting 7 15.6
2019-Sep-15 02:17 098 1 gusting 7 16.1
2019-Sep-15 02:12 067 1 gusting 7 16.1
2019-Sep-15 02:07 170 2 gusting 5 15.6
2019-Sep-15 02:02 050 15.6
2019-Sep-15 01:57 050 15.6
2019-Sep-15 01:52 337 15.6
2019-Sep-15 01:47 337 15.6
2019-Sep-15 01:42 337 15.6
2019-Sep-15 01:37 337 1 gusting 6 15.6
2019-Sep-15 01:32 149 16.1
2019-Sep-15 01:27 208 1 gusting 0 16.1
2019-Sep-15 01:22 310 16.1
2019-Sep-15 01:17 310 16.7
2019-Sep-15 01:12 336 16.7
2019-Sep-15 01:07 336 16.7
2019-Sep-15 01:02 181 16.7
2019-Sep-15 00:57 109 1 gusting 6 17.2
2019-Sep-15 00:52 137 3 gusting 5 17.8
2019-Sep-15 00:47 070 4 gusting 5 17.8
2019-Sep-15 00:42 090 1 gusting 4 17.8
2019-Sep-15 00:37 143 17.8
2019-Sep-15 00:32 181 1 gusting 7 17.8
2019-Sep-15 00:27 210 1 gusting 5 17.2
2019-Sep-15 00:22 139 1 gusting 5 17.2
2019-Sep-15 00:17 082 1 gusting 6 17.2
2019-Sep-15 00:12 326 17.2
2019-Sep-15 00:07 216 1 gusting 5 17.8
2019-Sep-15 00:02 060 2 gusting 5 17.8
2019-Sep-14 23:57 043 3 gusting 4 17.8
2019-Sep-14 23:52 040 1 gusting 4 17.8
2019-Sep-14 23:47 028 1 gusting 1 17.8
2019-Sep-14 23:42 212 0 gusting 1 17.8
2019-Sep-14 23:37 122 1 gusting 2 17.8
2019-Sep-14 23:32 326 17.8
2019-Sep-14 23:27 326 17.8
2019-Sep-14 23:22 327 1 gusting 2 17.2
2019-Sep-14 23:17 327 17.2
2019-Sep-14 23:12 149 1 gusting 6 17.8
2019-Sep-14 23:07 150 17.8
2019-Sep-14 23:02 057 17.8
2019-Sep-14 22:57 090 2 gusting 2 17.8
2019-Sep-14 22:52 030 17.8
2019-Sep-14 22:47 039 18.3
2019-Sep-14 22:42 133 1 gusting 3 17.8
2019-Sep-14 22:37 050 17.8
2019-Sep-14 22:32 119 17.2
2019-Sep-14 22:27 119 17.2
2019-Sep-14 22:22 143 1 gusting 3 17.2
2019-Sep-14 22:17 17.2
2019-Sep-14 22:07 080 1 gusting 6 17.8
2019-Sep-14 22:02 018 0 gusting 7 18.3